Location: Gälforsberget
(66.6500°N, 22.4167°E)
Time: 05:04:20
(UTC+00:00)

Cosmos 1825 Rocket - Pass Details

Date: 11 April 2026
Orbit: 596 x 624 km, 82.5° (Epoch: 10 May)

Event Time Altitude Azimuth Distance (km) Brightness Sun altitude
Rises 23:35:56 0° 340° (NNW) 2,878 7.9 -13.8°
Reaches altitude 10° 23:38:11 10° 343° (NNW) 1,967 7.0 -13.8°
Maximum altitude 23:42:30 67° 67° (ENE) 658 3.8 -13.6°
Enters shadow 23:46:48 10° 151° (SSE) 1,943 5.7 -13.5°
